Location: Thompson
(55.7500°N, 97.8670°W)
Time: 05:43:56
(UTC-05:00)

Amateur Radio Satellites - All Passes

Search period start: 23 May 2017 05:13
Search period end: 24 May 2017 05:13
Location: Thompson, 55.7500°N, 97.8670°W

Satellite Date Start Highest point End Downlink Frequencies (MHz)
Time Altitude Azimuth
AO-7 23 May 05:14:20 05:22:37 60° 104° (ESE) 05:30:51 .
CUBESAT XI-V 23 May 05:17:42 05:22:24 70° 256° (WSW) 05:27:09 437.345
RS-15 23 May 05:29:27 05:41:48 88° 321° (NW) 05:54:14 29.354- 29.394
ITUPSAT 1 23 May 05:30:10 05:31:20 11° 278° (W) 05:32:30 437.325
Oscar 19 23 May 05:39:38 05:42:42 16° 314° (NW) 05:45:45 437.125/150
PCSat 23 May 05:42:12 05:47:34 60° 235° (SW) 05:52:53 145.827
KKS-1 23 May 06:06:35 06:10:28 29° 266° (W) 06:14:20 437.445
CUTE-I 23 May 06:19:11 06:21:15 12° 81° (E) 06:23:20 437.470
O/OREOS (USA 219) 23 May 06:21:48 06:26:24 78° 120° (ESE) 06:31:01 437.305
Gurwin Techsat 1B 23 May 06:24:39 06:27:03 13° 319° (NW) 06:29:26 435.225
XW-2B 23 May 06:27:09 06:28:23 11° 84° (E) 06:29:36 145.730 - 145.750
ITAMSAT 1 23 May 06:31:13 06:35:56 36° 301° (WNW) 06:40:39 435.822/435.867
SO-50 23 May 06:33:30 06:37:48 40° 25° (NNE) 06:42:05 436.795
XW-2C 23 May 06:39:44 06:42:02 15° 87° (E) 06:44:19 145.795 - 145.815
STRAND 1 23 May 06:40:26 06:44:56 33° 58° (ENE) 06:49:28 437.568
XW-2F 23 May 06:41:52 06:44:09 15° 88° (E) 06:46:26 145.980 - 146.000
STARS 23 May 06:49:17 06:52:51 24° 267° (W) 06:56:28 437.465
NUDT-PHONESAT 23 May 06:53:22 06:55:46 16° 88° (E) 06:58:09 437.300
KAITUO 1B 23 May 06:56:05 06:58:41 17° 89° (E) 07:01:15 145.475/437.950
CUBESAT XI-V 23 May 06:58:37 07:00:41 13° 277° (W) 07:02:45 437.345
DOVE 4 23 May 07:02:01 07:05:55 37° 97° (E) 07:09:48 437.250
AO-7 23 May 07:07:25 07:15:20 50° 307° (NW) 07:23:15 .
AO-85 23 May 07:08:01 07:11:54 45° 129° (SE) 07:15:42 145.980
M-CUBED/EXP-1 PRIME 23 May 07:10:22 07:13:44 25° 53° (NE) 07:16:55 437.505
LilacSat-2 23 May 07:12:29 07:15:58 30° 95° (E) 07:19:26 437.200
YUBILEINY 23 May 07:13:05 07:16:40 13° 340° (NNW) 07:20:16 435.215
HO-68 23 May 07:14:34 07:18:14 14° 79° (E) 07:21:54 435.675
BEESAT 3 23 May 07:23:37 07:26:57 26° 121° (ESE) 07:30:19 437.485
PCSat 23 May 07:27:17 07:29:55 14° 256° (WSW) 07:32:33 145.827
RS-15 23 May 07:43:30 07:55:44 58° 349° (N) 08:07:49 29.354- 29.394
XW-2D 23 May 07:51:32 07:55:25 70° 103° (ESE) 07:59:16 145.860 - 145.880
CUTE-I 23 May 07:57:10 08:02:28 60° 102° (ESE) 08:07:44 437.470
XW-2B 23 May 07:59:22 08:03:16 80° 104° (ESE) 08:07:07 145.730 - 145.750
O/OREOS (USA 219) 23 May 08:02:27 08:06:19 26° 321° (NW) 08:10:12 437.305
XW-2C 23 May 08:12:51 08:16:44 76° 287° (WNW) 08:20:36 145.795 - 145.815
ITAMSAT 1 23 May 08:13:07 08:14:04 10° 323° (NW) 08:15:02 435.822/435.867
SO-50 23 May 08:14:02 08:18:32 65° 227° (SW) 08:23:00 436.795
FO-29 23 May 08:14:50 08:17:35 14° 41° (NE) 08:20:24 435.910
XW-2F 23 May 08:14:55 08:18:47 75° 287° (WNW) 08:22:37 145.980 - 146.000
PRISM 23 May 08:18:57 08:20:29 12° 48° (NE) 08:22:01 437.425
STRAND 1 23 May 08:18:57 08:23:57 54° 259° (W) 08:29:00 437.568
SEEDS 23 May 08:19:44 08:22:47 19° 89° (E) 08:25:50 437.485
XW-2A 23 May 08:25:28 08:28:17 23° 94° (E) 08:31:04 145.665 - 145.685
NUDT-PHONESAT 23 May 08:26:19 08:30:07 68° 288° (WNW) 08:33:52 437.300
KAITUO 1B 23 May 08:29:18 08:33:06 63° 289° (WNW) 08:36:52 145.475/437.950
BEESAT 2 23 May 08:31:16 08:35:02 41° 127° (SE) 08:38:52 435.950
UNISAT 6 23 May 08:34:16 08:36:18 13° 49° (NE) 08:38:20 437.425
DOVE 4 23 May 08:39:54 08:43:37 32° 297° (WNW) 08:47:19 437.250
M-CUBED/EXP-1 PRIME 23 May 08:43:49 08:47:59 57° 251° (WSW) 08:51:52 437.505
LilacSat-2 23 May 08:46:43 08:50:19 36° 295° (WNW) 08:53:53 437.200
AO-85 23 May 08:48:31 08:52:21 42° 330° (NNW) 08:56:07 145.980
AO-73 23 May 08:49:38 08:51:22 12° 83° (E) 08:53:06 145.935
CUBEBUG 2 23 May 08:54:56 08:58:56 31° 94° (E) 09:03:02 437.445
CUTE 1.7 + AOD 2 23 May 08:57:48 09:02:03 56° 100° (E) 09:06:14 437.475
BEESAT 3 23 May 09:00:16 09:04:15 67° 322° (NW) 09:08:18 437.485
ZACube-1 23 May 09:00:25 09:03:14 16° 86° (E) 09:06:03 437.345
AO-7 23 May 09:00:28 09:06:24 22° 333° (NNW) 09:12:21 .
HO-68 23 May 09:00:33 09:07:40 57° 102° (ESE) 09:14:44 435.675
UWE-3 23 May 09:13:34 09:17:35 30° 94° (E) 09:21:39 435.000/436.395/437.385
YUBILEINY 23 May 09:15:55 09:18:56 12° 16° (NNE) 09:21:58 435.215
XW-2D 23 May 09:26:31 09:29:12 18° 303° (WNW) 09:31:52 145.860 - 145.880
AAUSAT CUBESAT 2 23 May 09:30:44 09:34:43 41° 98° (E) 09:38:39 437.432
XW-2B 23 May 09:34:31 09:36:58 16° 304° (NW) 09:39:26 145.730 - 145.750
CUTE-I 23 May 09:37:37 09:42:16 32° 303° (WNW) 09:46:56 437.470
TIGRISAT 23 May 09:37:52 09:41:43 34° 63° (ENE) 09:45:40 435.000
O/OREOS (USA 219) 23 May 09:45:35 09:47:21 12° 346° (NNW) 09:49:08 437.305
XW-2C 23 May 09:48:27 09:50:18 13° 307° (NW) 09:52:08 145.795 - 145.815
XW-2F 23 May 09:50:29 09:52:17 13° 307° (NW) 09:54:04 145.980 - 146.000
PRISM 23 May 09:50:54 09:54:58 58° 69° (ENE) 09:59:02 437.425
SEEDS 23 May 09:54:42 09:58:56 67° 289° (WNW) 10:03:08 437.485
SO-50 23 May 09:55:54 09:58:12 14° 247° (WSW) 10:00:28 436.795
FO-29 23 May 09:56:32 10:01:34 55° 65° (ENE) 10:06:51 435.910
XW-2A 23 May 09:57:57 10:01:10 38° 293° (WNW) 10:04:23 145.665 - 145.685
RS-15 23 May 09:58:08 10:10:29 64° 21° (NNE) 10:22:26 29.354- 29.394
NUDT-PHONESAT 23 May 10:01:56 10:03:20 12° 308° (NW) 10:04:44 437.300
Oscar 11 23 May 10:02:15 10:06:21 37° 96° (E) 10:10:25 .
STRAND 1 23 May 10:03:35 10:04:20 10° 280° (W) 10:05:05 437.568
KAITUO 1B 23 May 10:05:10 10:06:23 11° 309° (NW) 10:07:37 145.475/437.950
UNISAT 6 23 May 10:07:58 10:12:11 62° 70° (ENE) 10:16:32 437.425
AIST 2D 23 May 10:08:16 10:09:20 11° 53° (NE) 10:10:25 435.315
BEESAT 2 23 May 10:08:53 10:12:48 47° 328° (NNW) 10:16:46 435.950
AO-73 23 May 10:23:55 10:28:26 69° 103° (ESE) 10:32:58 145.935
DELFI C3 23 May 10:25:08 10:28:09 20° 91° (E) 10:31:08 145.870
AO-85 23 May 10:30:25 10:33:36 23° 354° (N) 10:36:46 145.980
CUBEBUG 2 23 May 10:31:27 10:35:42 45° 293° (WNW) 10:40:04 437.445
CUTE 1.7 + AOD 2 23 May 10:34:06 10:37:37 25° 301° (WNW) 10:41:07 437.475
ZACube-1 23 May 10:35:36 10:40:07 89° 296° (WNW) 10:44:42 437.345
NANOSAT C BR1 23 May 10:38:05 10:40:34 15° 52° (NE) 10:43:01 145.865
POLYITAN 1 23 May 10:38:40 10:41:20 17° 53° (NE) 10:44:01 437.675
BEESAT 3 23 May 10:39:02 10:42:28 26° 345° (NNW) 10:45:57 437.485
QB50P2 23 May 10:46:37 10:49:40 20° 56° (NE) 10:52:45 145.880/145.840
HO-68 23 May 10:48:33 10:55:20 46° 304° (NW) 11:02:06 435.675
UWE-3 23 May 10:49:54 10:54:12 46° 293° (WNW) 10:58:35 435.000/436.395/437.385
DUCHIFAT 1 23 May 10:50:32 10:53:19 17° 54° (NE) 10:56:05 145.980
AO-7 23 May 10:51:56 10:56:22 16° 360° (N) 11:00:47 .
AAUSAT CUBESAT 2 23 May 11:06:26 11:10:06 30° 297° (WNW) 11:13:42 437.432
YUBILEINY 23 May 11:12:50 11:20:00 26° 48° (NE) 11:27:08 435.215
TIGRISAT 23 May 11:14:24 11:18:24 39° 263° (W) 11:22:31 435.000
NO-84 23 May 11:14:26 11:17:47 22° 142° (SE) 11:21:02 435.350 FM
EO-79 23 May 11:24:11 11:28:00 35° 63° (ENE) 11:31:49 145.935-145.965
EO-88 23 May 11:24:42 11:28:20 53° 101° (E) 11:31:58 145.990 - 145.960
BUGSAT 1 23 May 11:24:57 11:27:00 14° 51° (NE) 11:29:04 437.445
O/OREOS (USA 219) 23 May 11:27:14 11:28:54 12° 12° (NNE) 11:30:32 437.305
PRISM 23 May 11:27:23 11:30:35 21° 268° (W) 11:33:48 437.425
SEEDS 23 May 11:31:48 11:33:53 14° 309° (NW) 11:35:58 437.485
AIST 2D 23 May 11:38:23 11:41:53 72° 74° (ENE) 11:45:28 435.315
Oscar 11 23 May 11:38:29 11:42:30 36° 296° (WNW) 11:46:29 .
FO-29 23 May 11:42:36 11:47:07 30° 268° (W) 11:51:47 435.910
UNISAT 6 23 May 11:46:05 11:49:21 21° 270° (W) 11:52:40 437.425
BEESAT 2 23 May 11:48:03 11:51:23 24° 351° (N) 11:54:44 435.950
DELFI C3 23 May 11:59:22 12:03:16 55° 290° (WNW) 12:07:06 145.870
AO-73 23 May 12:00:47 12:04:18 23° 302° (WNW) 12:07:50 145.935
Oscar 19 23 May 12:07:00 12:10:44 20° 50° (NE) 12:14:28 437.125/150
CUBEBUG 2 23 May 12:10:40 12:11:21 10° 314° (NW) 12:12:02 437.445
RS-15 23 May 12:11:26 12:23:43 75° 231° (SW) 12:35:28 29.354- 29.394
NANOSAT C BR1 23 May 12:11:28 12:15:39 81° 72° (ENE) 12:19:52 145.865
AO-85 23 May 12:11:35 12:15:02 28° 19° (NNE) 12:18:31 145.980
POLYITAN 1 23 May 12:12:22 12:16:34 88° 66° (ENE) 12:20:49 437.675
ZACube-1 23 May 12:12:49 12:15:51 18° 306° (NW) 12:18:56 437.345
BEESAT 3 23 May 12:17:51 12:21:08 23° 8° (N) 12:24:26 437.485
LO-87 23 May 12:20:33 12:23:51 35° 97° (E) 12:27:09 145.935 - 145.965
QB50P2 23 May 12:20:50 12:25:02 74° 256° (WSW) 12:29:17 145.880/145.840
DUCHIFAT 1 23 May 12:24:17 12:28:27 86° 251° (WSW) 12:32:41 145.980
UWE-3 23 May 12:28:40 12:29:41 11° 314° (NW) 12:30:43 435.000/436.395/437.385
VELOX 1 23 May 12:32:33 12:33:37 11° 83° (E) 12:34:40 145.980
HO-68 23 May 12:37:01 12:41:30 18° 328° (NNW) 12:45:58 435.675
AO-7 23 May 12:40:26 12:46:19 22° 27° (NNE) 12:52:12 .
NO-84 23 May 12:50:46 12:54:56 58° 161° (SSE) 12:58:49 435.350 FM
Gurwin Techsat 1B 23 May 12:53:13 12:57:39 28° 55° (NE) 13:02:06 435.225
SPROUT 23 May 12:53:46 12:56:34 17° 88° (E) 12:59:20 437.525
ESTCUBE 1 23 May 12:54:31 12:58:56 48° 99° (E) 13:03:18 437.505/2401.250
BUGSAT 1 23 May 12:57:43 13:01:43 75° 72° (ENE) 13:05:45 437.445
EO-88 23 May 12:58:57 13:01:45 21° 300° (WNW) 13:04:32 145.990 - 145.960
EO-79 23 May 12:59:53 13:03:46 36° 263° (W) 13:07:41 145.935-145.965
O/OREOS (USA 219) 23 May 13:06:10 13:09:58 25° 37° (NE) 13:13:42 437.305
YUBILEINY 23 May 13:09:40 13:18:33 75° 75° (ENE) 13:27:24 435.215
AIST 2D 23 May 13:13:44 13:15:35 14° 273° (W) 13:17:27 435.315
DX 1 23 May 13:19:49 13:21:26 12° 84° (E) 13:23:03 434.975-435.025
BEESAT 2 23 May 13:26:45 13:30:14 26° 15° (NNE) 13:33:43 435.950
DELFI C3 23 May 13:36:21 13:37:13 11° 311° (NW) 13:38:05 145.870
Oscar 19 23 May 13:44:10 13:49:23 81° 71° (ENE) 13:54:38 437.125/150
NANOSAT C BR1 23 May 13:49:21 13:51:56 16° 273° (W) 13:54:32 145.865
POLYITAN 1 23 May 13:50:38 13:53:00 15° 274° (W) 13:55:21 437.675
AO-85 23 May 13:51:56 13:55:55 82° 42° (NE) 14:00:01 145.980
LO-87 23 May 13:54:12 13:57:14 26° 297° (WNW) 14:00:14 145.935 - 145.965
BEESAT 3 23 May 13:55:39 13:59:34 45° 31° (NNE) 14:03:27 437.485
QB50P2 23 May 14:00:10 14:01:38 12° 276° (W) 14:03:06 145.880/145.840
50 SAT 23 May 14:01:46 14:04:55 33° 97° (E) 14:08:03 437.505
DUCHIFAT 1 23 May 14:02:45 14:04:50 13° 274° (W) 14:06:54 145.980
VELOX 1 23 May 14:06:34 14:10:58 65° 104° (ESE) 14:15:19 145.980
RS-15 23 May 14:24:38 14:34:15 29° 258° (WSW) 14:43:35 29.354- 29.394
HO-68 23 May 14:25:42 14:26:31 10° 354° (N) 14:27:22 435.675
NO-84 23 May 14:28:20 14:32:28 82° 179° (S) 14:36:15 435.350 FM
SPROUT 23 May 14:28:44 14:33:01 78° 289° (WNW) 14:37:17 437.525
AO-7 23 May 14:29:31 14:37:21 49° 52° (NE) 14:45:15 .
ESTCUBE 1 23 May 14:31:37 14:35:36 31° 300° (WNW) 14:39:32 437.505/2401.250
Gurwin Techsat 1B 23 May 14:31:55 14:37:14 71° 256° (WSW) 14:42:35 435.225
BUGSAT 1 23 May 14:35:06 14:37:36 16° 272° (W) 14:40:07 437.445
ITAMSAT 1 23 May 14:38:28 14:43:04 34° 58° (ENE) 14:47:41 435.822/435.867
O/OREOS (USA 219) 23 May 14:45:21 14:49:57 83° 239° (WSW) 14:54:27 437.305
UKube-1 23 May 14:53:55 14:58:10 53° 101° (ESE) 15:02:23 .
DX 1 23 May 14:54:05 14:58:27 73° 105° (ESE) 15:02:46 434.975-435.025
BEESAT 2 23 May 15:04:35 15:08:40 64° 38° (NE) 15:12:42 435.950
YUBILEINY 23 May 15:07:02 15:14:44 36° 279° (W) 15:22:26 435.215
Oscar 19 23 May 15:25:28 15:29:21 21° 272° (W) 15:33:15 437.125/150
AO-85 23 May 15:32:57 15:35:53 20° 241° (WSW) 15:38:54 145.980
BEESAT 3 23 May 15:33:21 15:37:12 43° 232° (SW) 15:40:59 437.485
50 SAT 23 May 15:34:49 15:37:45 26° 297° (WNW) 15:40:38 437.505
ITUPSAT 1 23 May 15:40:55 15:44:37 21° 90° (E) 15:48:17 437.325
VELOX 1 23 May 15:43:36 15:47:04 23° 303° (WNW) 15:50:31 145.980
SPROUT 23 May 16:05:48 16:08:17 15° 308° (NW) 16:10:47 437.525
NO-84 23 May 16:06:05 16:09:55 51° 203° (SSW) 16:13:25 435.350 FM
HO-68 23 May 16:08:20 16:11:18 13° 21° (NNE) 16:14:17 435.675
CUTE-I 23 May 16:11:30 16:13:24 12° 39° (NE) 16:15:18 437.470
Gurwin Techsat 1B 23 May 16:15:19 16:18:11 14° 277° (W) 16:21:04 435.225
BEESAT 23 May 16:16:29 16:21:01 40° 98° (E) 16:25:32 436.000
ITAMSAT 1 23 May 16:17:19 16:22:23 54° 259° (W) 16:27:29 435.822/435.867
AO-7 23 May 16:21:53 16:30:04 61° 256° (WSW) 16:38:19 .
O/OREOS (USA 219) 23 May 16:26:05 16:28:38 15° 261° (W) 16:31:09 437.305
MOZHAYETS 4 23 May 16:30:17 16:34:32 34° 95° (E) 16:38:46
UKube-1 23 May 16:30:23 16:33:58 26° 301° (WNW) 16:37:34 .
DX 1 23 May 16:30:58 16:34:13 21° 305° (NW) 16:37:28 434.975-435.025
DOVE 4 23 May 16:38:46 16:41:45 18° 55° (NE) 16:44:40 437.250
BEESAT 2 23 May 16:42:42 16:46:10 27° 238° (WSW) 16:49:38 435.950
CUBESAT XI-V 23 May 17:07:16 17:10:35 19° 88° (E) 17:13:51 437.345
XW-2D 23 May 17:07:21 17:09:42 16° 56° (NE) 17:12:05 145.860 - 145.880
XW-2B 23 May 17:14:54 17:17:30 18° 57° (ENE) 17:20:07 145.730 - 145.750
ITUPSAT 1 23 May 17:18:08 17:22:57 72° 291° (WNW) 17:27:45 437.325
XW-2C 23 May 17:27:51 17:30:52 22° 60° (ENE) 17:33:54 145.795 - 145.815
XW-2F 23 May 17:29:34 17:32:34 22° 60° (ENE) 17:35:35 145.980 - 146.000
NUDT-PHONESAT 23 May 17:39:33 17:42:30 22° 60° (ENE) 17:45:29 437.300
KAITUO 1B 23 May 17:42:58 17:46:05 25° 61° (ENE) 17:49:13 145.475/437.950
NO-84 23 May 17:44:26 17:46:46 16° 224° (SW) 17:49:00 435.350 FM
CUTE-I 23 May 17:47:16 17:52:12 41° 61° (ENE) 17:57:10 437.470
KKS-1 23 May 17:49:08 17:53:08 32° 96° (E) 17:57:07 437.445
HO-68 23 May 17:50:57 17:56:53 29° 46° (NE) 18:02:50 435.675
BEESAT 23 May 17:54:22 17:58:49 39° 298° (WNW) 18:03:16 436.000
LilacSat-2 23 May 18:01:09 18:04:49 44° 68° (ENE) 18:08:32 437.200
ITAMSAT 1 23 May 18:02:17 18:03:04 10° 280° (W) 18:03:52 435.822/435.867
MOZHAYETS 4 23 May 18:07:24 18:11:50 43° 295° (WNW) 18:16:13
DOVE 4 23 May 18:14:22 18:18:59 89° 263° (W) 18:23:22 437.250
AO-7 23 May 18:19:44 18:24:44 17° 279° (W) 18:29:47 .
CUTE 1.7 + AOD 2 23 May 18:23:16 18:26:15 19° 55° (NE) 18:29:14 437.475
CUBEBUG 2 23 May 18:26:51 18:28:30 12° 48° (NE) 18:30:09 437.445
STARS 23 May 18:29:51 18:33:54 36° 97° (E) 18:37:58 437.465
XW-2D 23 May 18:39:35 18:43:24 83° 256° (WSW) 18:47:17 145.860 - 145.880
CUBESAT XI-V 23 May 18:43:50 18:48:33 79° 287° (WNW) 18:53:11 437.345
UWE-3 23 May 18:44:37 18:46:10 12° 48° (NE) 18:47:45 435.000/436.395/437.385
XW-2B 23 May 18:47:27 18:51:16 72° 258° (WSW) 18:55:08 145.730 - 145.750
AAUSAT CUBESAT 2 23 May 18:54:45 18:56:57 14° 52° (NE) 18:59:09 437.432
ITUPSAT 1 23 May 18:57:01 19:00:03 17° 311° (NW) 19:03:06 437.325
XW-2C 23 May 19:01:04 19:04:48 52° 260° (W) 19:08:36 145.795 - 145.815
XW-2F 23 May 19:02:43 19:06:26 52° 260° (W) 19:10:13 145.980 - 146.000
XW-2A 23 May 19:03:47 19:06:40 26° 64° (ENE) 19:09:34 145.665 - 145.685
NUDT-PHONESAT 23 May 19:12:34 19:16:11 48° 260° (W) 19:19:51 437.300
KAITUO 1B 23 May 19:16:16 19:19:55 44° 261° (W) 19:23:36 145.475/437.950
SEEDS 23 May 19:18:03 19:21:53 34° 63° (ENE) 19:25:44 437.485
KKS-1 23 May 19:25:37 19:29:49 42° 296° (WNW) 19:34:00 437.445
CUTE-I 23 May 19:27:12 19:32:16 44° 262° (W) 19:37:22 437.470
Oscar 11 23 May 19:30:23 19:32:45 15° 51° (NE) 19:35:09 .
BEESAT 23 May 19:34:44 19:35:25 10° 319° (NW) 19:36:07 436.000
LilacSat-2 23 May 19:36:06 19:39:18 24° 267° (W) 19:42:32 437.200
HO-68 23 May 19:36:39 19:43:51 85° 68° (ENE) 19:51:07 435.675
MOZHAYETS 4 23 May 19:46:52 19:47:54 11° 316° (NW) 19:48:56
AO-73 23 May 19:51:34 19:54:54 23° 57° (ENE) 19:58:18 145.935
DOVE 4 23 May 19:54:39 19:57:18 15° 273° (W) 19:59:52 437.250
CUTE 1.7 + AOD 2 23 May 19:57:16 20:01:35 83° 256° (WSW) 20:05:55 437.475
CUBEBUG 2 23 May 20:00:10 20:04:16 59° 70° (ENE) 20:08:30 437.445
ZACube-1 23 May 20:03:04 20:06:43 29° 61° (ENE) 20:10:28 437.345
STARS 23 May 20:06:15 20:10:18 37° 297° (WNW) 20:14:20 437.465
XW-2D 23 May 20:16:58 20:18:16 11° 275° (W) 20:19:34 145.860 - 145.880
UWE-3 23 May 20:17:38 20:21:45 56° 69° (ENE) 20:25:59 435.000/436.395/437.385
STRAND 1 23 May 20:21:40 20:26:13 31° 94° (E) 20:30:45 437.568
CUBESAT XI-V 23 May 20:22:13 20:25:14 17° 309° (NW) 20:28:15 437.345
AAUSAT CUBESAT 2 23 May 20:27:32 20:31:43 72° 72° (ENE) 20:35:55 437.432
PCSat 23 May 20:31:45 20:36:10 26° 112° (ESE) 20:40:37 145.827
XW-2A 23 May 20:36:19 20:39:21 31° 263° (W) 20:42:27 145.665 - 145.685
EO-88 23 May 20:38:24 20:39:51 12° 53° (NE) 20:41:18 145.990 - 145.960
SEEDS 23 May 20:53:33 20:57:33 38° 263° (W) 21:01:34 437.485
Oscar 11 23 May 21:03:51 21:08:11 71° 71° (ENE) 21:12:33 .
KKS-1 23 May 21:05:05 21:05:21 10° 316° (NW) 21:05:36 437.445
DELFI C3 23 May 21:17:14 21:20:50 33° 64° (ENE) 21:24:27 145.870
HO-68 23 May 21:26:30 21:32:27 27° 271° (W) 21:38:27 435.675
AO-73 23 May 21:26:35 21:30:47 64° 258° (WSW) 21:35:07 145.935
CUTE 1.7 + AOD 2 23 May 21:35:59 21:38:08 13° 276° (W) 21:40:17 437.475
CUBEBUG 2 23 May 21:38:06 21:41:18 21° 270° (W) 21:44:34 437.445
ZACube-1 23 May 21:38:47 21:42:51 46° 261° (W) 21:47:03 437.345
M-CUBED/EXP-1 PRIME 23 May 21:49:58 21:52:50 24° 101° (E) 21:55:35 437.505
UWE-3 23 May 21:55:15 21:58:34 22° 270° (W) 22:01:59 435.000/436.395/437.385
STRAND 1 23 May 22:00:40 22:05:42 55° 294° (WNW) 22:10:43 437.568
AAUSAT CUBESAT 2 23 May 22:04:49 22:07:41 18° 272° (W) 22:10:32 437.432
EO-88 23 May 22:09:14 22:12:54 74° 73° (ENE) 22:16:35 145.990 - 145.960
PCSat 23 May 22:13:37 22:19:04 82° 313° (NW) 22:24:34 145.827
ESTCUBE 1 23 May 22:25:52 22:29:14 21° 55° (NE) 22:32:37 437.505/2401.250
FO-29 23 May 22:40:53 22:46:02 28° 91° (E) 22:51:41 435.910
Oscar 11 23 May 22:41:43 22:44:48 19° 271° (W) 22:47:57 .
DELFI C3 23 May 22:51:56 22:55:37 35° 264° (W) 22:59:19 145.870
TIGRISAT 23 May 22:57:44 23:01:37 27° 93° (E) 23:05:32 435.000
PRISM 23 May 22:59:59 23:03:41 32° 96° (E) 23:07:21 437.425
LO-87 23 May 23:03:28 23:06:53 47° 69° (ENE) 23:10:19 145.935 - 145.965
AO-73 23 May 23:07:39 23:07:58 10° 279° (W) 23:08:18 145.935
M-CUBED/EXP-1 PRIME 23 May 23:24:14 23:27:27 36° 302° (WNW) 23:30:31 437.505
UNISAT 6 23 May 23:28:13 23:32:39 50° 100° (E) 23:37:08 437.425
Tancredo 1 23 May 23:30:50 23:33:12 20° 156° (SSE) 23:35:33 437.200
ISS 23 May 23:31:27 23:33:47 18° 152° (SSE) 23:36:07 437.550
VELOX 1 23 May 23:35:27 23:39:05 26° 58° (ENE) 23:42:44 145.980
STRAND 1 23 May 23:41:09 23:43:55 15° 315° (NW) 23:46:40 437.568
EO-88 23 May 23:45:02 23:47:04 14° 272° (W) 23:49:06 145.990 - 145.960
SPROUT 23 May 23:53:46 23:57:32 32° 62° (ENE) 00:01:21 437.525
PCSat 23 May 23:58:18 00:03:12 33° 338° (NNW) 00:08:07 145.827
QB50P2 23 May 23:59:47 00:01:23 12° 84° (E) 00:03:00 145.880/145.840
ESTCUBE 1 24 May 00:01:01 00:05:34 79° 255° (WSW) 00:10:10 437.505/2401.250
SO-50 24 May 00:15:12 00:19:11 31° 123° (ESE) 00:23:11 436.795
UKube-1 24 May 00:20:43 00:24:00 22° 56° (NE) 00:27:17 .
DX 1 24 May 00:21:20 00:25:02 28° 59° (ENE) 00:28:44 434.975-435.025
FO-29 24 May 00:25:40 00:31:38 76° 290° (WNW) 00:38:23 435.910
YUBILEINY 24 May 00:27:42 00:33:09 19° 68° (ENE) 00:38:38 435.215
AIST 2D 24 May 00:29:20 00:32:35 31° 96° (E) 00:35:48 435.315
TIGRISAT 24 May 00:34:09 00:38:33 52° 292° (WNW) 00:43:02 435.000
PRISM 24 May 00:35:15 00:39:02 37° 296° (WNW) 00:42:48 437.425
EO-79 24 May 00:36:48 00:40:12 23° 92° (E) 00:43:35 145.935-145.965
LO-87 24 May 00:37:54 00:40:34 20° 268° (W) 00:43:15 145.935 - 145.965
50 SAT 24 May 00:40:51 00:44:10 43° 68° (ENE) 00:47:29 437.505
UNISAT 6 24 May 01:05:16 01:09:12 30° 299° (WNW) 01:13:11 437.425
Tancredo 1 24 May 01:05:36 01:08:29 37° 175° (S) 01:11:22 437.200
ISS 24 May 01:06:38 01:09:43 37° 171° (S) 01:12:48 437.550
VELOX 1 24 May 01:10:55 01:15:17 57° 258° (WSW) 01:19:40 145.980
ITUPSAT 1 24 May 01:19:54 01:22:16 14° 46° (NE) 01:24:38 437.325
NANOSAT C BR1 24 May 01:23:43 01:27:52 52° 100° (E) 01:32:01 145.865
POLYITAN 1 24 May 01:25:12 01:29:26 58° 102° (ESE) 01:33:40 437.675
SPROUT 24 May 01:29:25 01:33:24 40° 262° (W) 01:37:26 437.525
QB50P2 24 May 01:33:41 01:37:58 74° 105° (ESE) 01:42:14 145.880/145.840
DUCHIFAT 1 24 May 01:36:09 01:40:22 62° 102° (ESE) 01:44:34 145.980
ESTCUBE 1 24 May 01:40:49 01:43:09 14° 275° (W) 01:45:30 437.505/2401.250
PCSat 24 May 01:43:36 01:48:06 25° 3° (N) 01:52:36 145.827
Oscar 19 24 May 01:49:01 01:52:20 17° 85° (E) 01:55:36 437.125/150
BEESAT 24 May 01:53:53 01:57:31 22° 54° (NE) 02:01:10 436.000
SO-50 24 May 01:54:52 01:59:26 67° 324° (NW) 02:03:58 436.795
UKube-1 24 May 01:55:20 01:59:38 70° 255° (WSW) 02:03:58 .
DX 1 24 May 01:56:46 02:01:02 51° 259° (W) 02:05:18 434.975-435.025
AIST 2D 24 May 02:02:37 02:05:47 30° 295° (WNW) 02:08:56 435.315
MOZHAYETS 4 24 May 02:04:25 02:07:15 16° 51° (NE) 02:10:05
BUGSAT 1 24 May 02:07:00 02:10:57 44° 99° (E) 02:14:55 437.445
FO-29 24 May 02:11:39 02:16:02 22° 310° (NW) 02:20:47 435.910
EO-79 24 May 02:12:06 02:16:17 56° 291° (WNW) 02:20:27 145.935-145.965
TIGRISAT 24 May 02:12:37 02:14:21 12° 313° (NW) 02:16:07 435.000
50 SAT 24 May 02:14:35 02:17:15 20° 267° (W) 02:19:55 437.505
YUBILEINY 24 May 02:19:38 02:28:11 64° 93° (E) 02:36:51 435.215
Gurwin Techsat 1B 24 May 02:40:37 02:45:08 27° 92° (E) 02:49:37 435.225
Tancredo 1 24 May 02:41:07 02:43:52 30° 195° (SSW) 02:46:37 437.200
ISS 24 May 02:42:48 02:45:51 35° 191° (S) 02:48:54 437.550
RS-15 24 May 02:44:28 02:54:44 34° 106° (ESE) 03:05:06 29.354- 29.394
CUBESAT XI-V 24 May 02:44:36 02:45:24 10° 43° (NE) 02:46:10 437.345
ITUPSAT 1 24 May 02:54:30 02:59:10 55° 66° (ENE) 03:03:53 437.325
NANOSAT C BR1 24 May 02:59:51 03:03:23 26° 300° (WNW) 03:06:54 145.865
POLYITAN 1 24 May 03:01:30 03:04:56 24° 301° (WNW) 03:08:23 437.675
QB50P2 24 May 03:10:13 03:13:20 20° 304° (NW) 03:16:27 145.880/145.840
DUCHIFAT 1 24 May 03:12:24 03:15:44 23° 302° (WNW) 03:19:03 145.980
KKS-1 24 May 03:19:58 03:22:35 16° 50° (NE) 03:25:11 437.445
Oscar 19 24 May 03:27:15 03:32:30 83° 108° (ESE) 03:37:39 437.125/150
PCSat 24 May 03:27:46 03:32:52 39° 28° (NNE) 03:37:58 145.827
BEESAT 24 May 03:30:03 03:34:49 80° 253° (WSW) 03:39:38 436.000
UKube-1 24 May 03:35:06 03:36:30 11° 276° (W) 03:37:55 .
SO-50 24 May 03:36:33 03:40:34 30° 347° (NNW) 03:44:35 436.795
MOZHAYETS 4 24 May 03:39:05 03:43:41 74° 72° (ENE) 03:48:21
BUGSAT 1 24 May 03:42:40 03:46:11 28° 299° (WNW) 03:49:44 437.445
EO-79 24 May 03:49:38 03:51:13 12° 312° (NW) 03:52:48 145.935-145.965
STARS 24 May 03:59:15 04:01:57 16° 51° (NE) 04:04:41 437.465
AO-7 24 May 04:14:43 04:22:00 32° 92° (E) 04:29:14 .
CUBESAT XI-V 24 May 04:17:13 04:21:39 41° 64° (ENE) 04:26:05 437.345
YUBILEINY 24 May 04:17:18 04:25:32 44° 298° (WNW) 04:33:52 435.215
Tancredo 1 24 May 04:17:45 04:18:58 12° 214° (SW) 04:20:10 437.200
ISS 24 May 04:19:37 04:21:45 16° 210° (SSW) 04:23:53 437.550
Gurwin Techsat 1B 24 May 04:20:14 04:25:31 65° 293° (WNW) 04:30:47 435.225
ITAMSAT 1 24 May 04:22:21 04:26:59 31° 94° (E) 04:31:36 435.822/435.867
ITUPSAT 1 24 May 04:33:13 04:37:18 28° 267° (W) 04:41:26 437.325
KKS-1 24 May 04:54:02 04:58:27 74° 71° (ENE) 05:02:54 437.445
O/OREOS (USA 219) 24 May 05:05:37 05:09:24 26° 106° (ESE) 05:13:12 437.305
